PLATFORM,ARGOS_ID,DATE (YYYY/MM/DD HH:MI:SS),LATITUDE (degree_north),LONGITUDE (degree_east),TEMP LEVEL0 (degree_Celsius),EWCT LEVEL0 (meter/second),NSCT LEVEL0 (meter/second),NSCT LEVEL1 (meter/second),EWCT LEVEL1 (meter/second),QC,SC40_GNRL_BattVolt,SC40_GNRL_Submergence
61287,24796,2005/05/29 08:00:00,43.1080,5.8850,23.203,,,,,0014419999,10.41,110
61287,24796,2005/05/29 09:00:00,43.1050,5.8840,25.859,-0.0309221,-0.126607,-0.092662,-0.02255,0014410000,10.53,70
61287,24796,2005/05/29 10:00:00,43.0580,5.9570,29.062,2.25731,-1.9827,-1.45171,1.64686,0014410000,10.53,30
61287,24796,2005/05/29 11:00:00,42.9320,5.8450,30.43,-3.46327,-5.30779,-3.89182,-2.53025,0014440000,10.59,0
61287,24796,2005/05/29 12:00:00,42.9590,5.7230,23.867,-3.77249,1.13646,0.833962,-2.75838,0014410000,10.47,0
61287,24796,2005/05/29 13:00:00,42.9580,5.7130,21.367,-0.309221,-0.0421001,-0.030887,-0.226049,0011110000,10.53,0
61287,24796,2005/05/29 14:00:00,42.9570,5.7030,21.445,-0.309221,-0.0420994,-0.030887,-0.226053,0011110000,10.53,0
61287,24796,2005/05/29 15:00:00,42.9540,5.6920,21.25,-0.340143,-0.126294,-0.092662,-0.248666,0011110000,10.53,0
61287,24796,2005/05/29 16:00:00,42.9510,5.6820,21.367,-0.309221,-0.126288,-0.092662,-0.226071,0011110000,10.53,0
61287,24796,2005/05/29 17:00:00,42.9470,5.6700,21.367,-0.371065,-0.168374,-0.12355,-0.271301,0011110000,10.53,0
61287,24796,2005/05/29 18:00:00,42.9430,5.6590,21.289,-0.340143,-0.168363,-0.12355,-0.248709,0011110000,10.53,0
61287,24796,2005/05/29 20:00:00,42.9340,5.6380,21.133,-0.324682,-0.189389,-0.138994,-0.237429,0011110000,10.53,0
61287,24796,2005/05/29 21:00:00,42.9290,5.6260,21.055,-0.371065,-0.210408,-0.154437,-0.271378,0011110000,10.41,0
61287,24796,2005/05/29 22:00:00,42.9250,5.6140,21.094,-0.371065,-0.168314,-0.12355,-0.271398,0011110000,10.41,0
61287,24796,2005/05/29 23:00:00,42.9210,5.6020,20.977,-0.371065,-0.168303,-0.12355,-0.271416,0011110000,10.53,0
61287,24796,2005/05/30 00:00:00,42.9170,5.5900,20.977,-0.371065,-0.168292,-0.12355,-0.271433,0011110000,10.53,0
61287,24796,2005/05/30 01:00:00,42.9130,5.5800,20.859,-0.309221,-0.168281,-0.12355,-0.226209,0011110000,10.53,0
61287,24796,2005/05/30 02:00:00,42.9090,5.5690,20.859,-0.340143,-0.16827,-0.12355,-0.248846,0011110000,10.53,0
61287,24796,2005/05/30 03:00:00,42.9060,5.5580,20.82,-0.340143,-0.126195,-0.092662,-0.24886,0011110000,10.41,0
61287,24796,2005/05/30 04:00:00,42.9020,5.5480,20.859,-0.309221,-0.16825,-0.12355,-0.226249,0011110000,10.53,0
61287,24796,2005/05/30 05:00:00,42.8990,5.5380,20.859,-0.309221,-0.126181,-0.092662,-0.226262,0011110000,10.53,0
61287,24796,2005/05/30 06:01:00,42.8960,5.5290,21.016,-0.273736,-0.124106,-0.091143,-0.200307,0011110000,10.35,0
61287,24796,2005/05/30 07:00:00,42.8920,5.5180,21.016,-0.345908,-0.171074,-0.125644,-0.253134,0011110000,10.53,0
61287,24796,2005/05/30 08:00:00,42.8890,5.5090,21.055,-0.278299,-0.12616,-0.092662,-0.203669,0011110000,10.53,0
61287,24796,2005/05/30 09:00:00,42.8860,5.4990,21.133,-0.309221,-0.126154,-0.092662,-0.22631,0011110000,10.53,0
61287,24796,2005/05/30 11:00:00,42.8790,5.4830,21.133,-0.247377,-0.147167,-0.108106,-0.181063,0011110000,10.53,0
61287,24796,2005/05/30 12:00:00,42.8740,5.4740,21.172,-0.278299,-0.210219,-0.154437,-0.203715,0011110000,10.53,0
61287,24796,2005/05/30 14:00:00,42.8660,5.4570,20.742,-0.262838,-0.168157,-0.12355,-0.192418,0011110000,10.35,18
61287,24796,2005/05/30 16:00:00,42.8570,5.4410,20.391,-0.247377,-0.18915,-0.138994,-0.181124,0011110000,10.35,99
61287,24796,2005/05/30 17:00:00,42.8520,5.4340,19.961,-0.216455,-0.210143,-0.154437,-0.158502,0011110000,10.35,139
61287,24796,2005/05/30 19:00:00,42.8420,5.4200,19.883,-0.216455,-0.210117,-0.154437,-0.158521,0011110000,10.47,219
61287,24796,2005/05/30 23:00:00,42.8200,5.3830,19.336,-0.286029,-0.231069,-0.169881,-0.209528,0011110000,10.47,255
61287,24796,2005/05/31 00:01:00,42.8160,5.3720,19.297,-0.334567,-0.16526,-0.121525,-0.245136,0011110000,10.35,255
61287,24796,2005/05/31 01:01:00,42.8130,5.3610,19.219,-0.340143,-0.126004,-0.092662,-0.249235,0011110000,10.35,255
61287,24796,2005/05/31 02:00:00,42.8110,5.3510,19.18,-0.314462,-0.0854228,-0.062822,-0.230427,0011110000,10.47,255
61287,24796,2005/05/31 03:02:00,42.8090,5.3400,18.945,-0.329171,-0.0812868,-0.059782,-0.241213,0011110000,10.29,255
61287,24796,2005/05/31 04:02:00,42.8070,5.3300,18.828,-0.309221,-0.0839936,-0.061775,-0.226601,0011110000,10.29,255
61287,24796,2005/05/31 05:00:00,42.8040,5.3200,18.789,-0.319884,-0.13033,-0.095858,-0.234425,0011110000,10.47,255
61287,24796,2005/05/31 06:02:00,42.8060,5.3100,18.789,-0.299246,0.0812802,0.059782,-0.219302,0011110000,10.29,255
61287,24796,2005/05/31 07:00:00,42.8060,5.3020,18.75,-0.255907,0,0,-0.187538,0011110000,10.47,255
61287,24796,2005/05/31 08:02:00,42.8060,5.2940,18.633,-0.239397,0,0,-0.175439,0011110000,10.29,255
61287,24796,2005/05/31 09:00:00,42.8050,5.2860,18.594,-0.255907,-0.0434432,-0.031953,-0.18754,0011110000,10.47,255
61287,24796,2005/05/31 10:00:00,42.8050,5.2800,18.555,-0.185532,0,0,-0.135967,0011110000,10.35,255
61287,24796,2005/05/31 11:00:00,42.8050,5.2730,18.438,-0.216455,0,0,-0.158629,0011110000,10.47,255
61287,24796,2005/05/31 12:00:00,42.8040,5.2680,18.438,-0.15461,-0.0419944,-0.030887,-0.113307,0011110000,10.47,255
61287,24796,2005/05/31 13:01:00,42.8040,5.2620,18.398,-0.182491,0,0,-0.133741,0011110000,10.35,255
61287,24796,2005/05/31 14:00:00,42.8040,5.2580,18.398,-0.125785,0,0,-0.092183,0011110000,10.35,255
61287,24796,2005/05/31 15:01:00,42.8050,5.2520,18.477,-0.182491,0.041306,0.030381,-0.13374,0011110000,10.35,255
61287,24796,2005/05/31 16:00:00,42.8050,5.2480,18.398,-0.125785,0,0,-0.092181,0011110000,10.47,255
61287,24796,2005/05/31 18:00:00,42.8060,5.2420,18.359,-0.0927662,0.0209975,0.015444,-0.067983,0011110000,10.47,255
61287,24796,2005/05/31 19:00:00,42.8050,5.2400,18.281,-0.0618442,-0.0419951,-0.030887,-0.045322,0011110000,10.47,255
61287,24796,2005/05/31 20:01:00,42.8050,5.2370,18.242,-0.0912455,0,0,-0.066869,0011110000,10.47,255
61287,24796,2005/05/31 23:00:00,42.8020,5.2290,18.242,-0.0829195,-0.0422283,-0.03106,-0.060769,0011110000,10.47,255
61287,24796,2005/06/01 00:01:00,42.8020,5.2260,18.359,,,0,-0.066872,0011119900,10.29,255
61287,24796,2005/06/01 01:00:00,42.8030,5.2240,18.32,-0.0628924,0.0427048,0.031411,-0.046093,0011110000,10.35,255
61287,24796,2005/06/01 02:00:00,42.8010,5.2200,18.398,-0.123688,-0.0839854,-0.061775,-0.090649,0011110000,10.35,255
61287,24796,2005/06/01 03:00:00,42.8000,5.2160,18.359,-0.123688,-0.0419917,-0.030887,-0.090652,0011110000,10.47,255
61287,24796,2005/06/01 05:00:00,42.8000,5.2100,18.438,-0.0927662,-6.46752e-13,0,-0.067989,0011110000,10.47,255
61287,24796,2005/06/01 06:00:00,42.8000,5.2050,18.359,-0.15461,-1.2935e-12,0,-0.113315,0011110000,10.47,255
61287,24796,2005/06/01 07:01:00,42.8000,5.2000,18.477,-0.152076,-1.2723e-12,0,-0.111458,0011110000,10.29,255
61287,24796,2005/06/01 08:00:00,42.8000,5.1960,18.477,-0.125785,-1.31543e-12,0,-0.092189,0011110000,10.47,255
61287,24796,2005/06/01 09:01:00,42.8010,5.1930,18.516,-0.0912455,0.0413033,0.030381,-0.066874,0011110000,10.35,255
61287,24796,2005/06/01 10:00:00,42.8020,5.1900,18.594,-0.0943386,0.0427041,0.031411,-0.06914,0011110000,10.47,255
61287,24796,2005/06/01 11:00:00,42.8030,5.1880,18.75,-0.0618442,0.041993,0.030887,-0.045324,0011110000,10.47,255
61287,24796,2005/06/01 12:00:00,42.8040,5.1860,18.828,-0.0618442,0.0419937,0.030887,-0.045324,0011110000,10.35,255
61287,24796,2005/06/01 13:00:00,42.8060,5.1840,19.141,-0.0618442,0.0839895,0.061775,-0.045322,0011110000,10.53,251
61287,24796,2005/06/01 14:00:00,42.8070,5.1830,19.766,-0.0309221,0.0419958,0.030887,-0.022661,0011110000,10.53,217
61287,24796,2005/06/01 15:00:00,42.8080,5.1820,20.195,-0.0309221,0.0419965,0.030887,-0.02266,0011110000,10.53,176
61287,24796,2005/06/01 16:00:00,42.8090,5.1820,20.547,0,0.0419971,0.030887,0,0011110000,10.53,136
61287,24796,2005/06/01 17:00:00,42.8100,5.1820,20.391,0,0.0419978,0.030887,0,0011110000,10.53,96
61287,24796,2005/06/01 18:00:00,42.8100,5.1810,20.039,-0.0309221,0,0,-0.022659,0011110000,10.53,56
61287,24796,2005/06/01 19:00:00,42.8100,5.1790,19.766,-0.0618442,0,0,-0.045319,0011110000,10.35,15
61287,24796,2005/06/01 20:00:00,42.8090,5.1780,19.375,-0.0309221,-0.0419978,-0.030887,-0.02266,0011110000,10.41,0
61287,24796,2005/06/01 21:00:00,42.8090,5.1750,19.062,-0.0927662,0,0,-0.067979,0011110000,10.53,0
61287,24796,2005/06/01 22:01:00,42.8090,5.1730,19.023,-0.0608303,0,0,-0.044577,0011110000,10.35,0
61287,24796,2005/06/01 23:00:00,42.8090,5.1700,19.023,-0.0943386,0,0,-0.069132,0011110000,10.47,0
61287,24796,2005/06/02 00:00:00,42.8090,5.1680,18.945,-0.0618442,0,0,-0.04532,0011110000,10.41,0
61287,24796,2005/06/02 01:00:00,42.8100,5.1650,18.906,-0.0927662,0.0419978,0.030887,-0.067979,0011110000,10.47,0
61287,24796,2005/06/02 02:00:00,42.8110,5.1620,18.945,-0.0927662,0.0419985,0.030887,-0.067978,0011110000,10.47,0
61287,24796,2005/06/02 03:00:00,42.8130,5.1590,18.945,-0.0927662,0.0839991,0.061775,-0.067976,0011110000,10.47,0
61287,24796,2005/06/02 04:00:00,42.8140,5.1570,18.828,-0.0618442,0.0420006,0.030887,-0.045316,0011110000,10.41,0
61287,24796,2005/06/02 05:00:00,42.8160,5.1560,18.906,-0.0309221,0.0840032,0.061775,-0.022658,0011110000,10.47,0
61287,24796,2005/06/02 06:00:00,42.8180,5.1550,18.984,-0.0309221,0.0840059,0.061775,-0.022657,0011110000,10.41,0
61287,24796,2005/06/02 07:00:00,42.8190,5.1560,19.023,0.0309221,0.042004,0.030887,0.022656,0011110000,10.47,0
61287,24796,2005/06/02 08:00:00,42.8200,5.1570,19.297,0.0309221,0.0420047,0.030887,0.022656,0011110000,10.35,0
61287,24796,2005/06/02 09:00:00,42.8200,5.1580,19.648,0.0309221,0,0,0.022656,0011110000,10.41,0
61287,24796,2005/06/02 10:00:00,42.8190,5.1580,20.43,0,-0.0420047,-0.030887,0,0011110000,10.53,0
61287,24796,2005/06/02 11:00:00,42.8180,5.1570,22.07,-0.0309221,-0.042004,-0.030887,-0.022656,0011110000,10.53,0
61287,24796,2005/06/02 12:00:00,42.8170,5.1550,21.875,-0.0618442,-0.0420033,-0.030887,-0.045313,0011110000,10.53,0
61287,24796,2005/06/02 13:01:00,42.8160,5.1530,22.383,-0.0608303,-0.041314,-0.030381,-0.044571,0011110000,10.41,0
61287,24796,2005/06/02 14:00:00,42.8160,5.1500,22.93,-0.0943386,0,0,-0.069124,0011110000,10.53,0
61287,24796,2005/06/02 15:00:00,42.8170,5.1470,22.422,-0.0927662,0.0420026,0.030887,-0.067971,0011110000,10.53,0
61287,24796,2005/06/02 16:00:00,42.8170,5.1460,22.148,-0.0309221,0,0,-0.022657,0011110000,10.53,0
61287,24796,2005/06/02 17:00:00,42.8170,5.1450,22.305,-0.0309221,0,0,-0.022657,0011110000,10.41,0
61287,24796,2005/06/02 18:01:00,42.8160,5.1440,22.148,-0.0304152,-0.041314,-0.030381,-0.022286,0011110000,10.41,0
61287,24796,2005/06/02 20:00:00,42.8160,5.1400,21.328,-0.0623639,0,0,-0.045695,0011110000,10.53,0
61287,24796,2005/06/02 21:00:00,42.8170,5.1390,20.938,-0.0309221,0.0420026,0.030887,-0.022657,0011110000,10.53,0
61287,24796,2005/06/02 22:01:00,42.8170,5.1390,20.742,0,0,0,0,0011110000,10.35,0
61287,24796,2005/06/03 00:00:00,42.8180,5.1380,20.508,-0.015591,0.0211781,0.015574,-0.011424,0011110000,10.53,0
61287,24796,2005/06/03 01:00:00,42.8180,5.1380,20.312,0,0,0,0,0011110000,10.53,0
61287,24796,2005/06/03 03:00:00,42.8170,5.1350,20.078,-0.0463831,-0.0210016,-0.015444,-0.033985,0011110000,10.41,0
61287,24796,2005/06/03 05:00:00,42.8150,5.1330,20.039,-0.0309221,-0.0420023,-0.030887,-0.022657,0011110000,10.53,0
61287,24796,2005/06/03 07:00:00,42.8140,5.1320,20.43,-0.015461,-0.0210006,-0.015444,-0.011329,0011110000,10.53,0
61287,24796,2005/07/03 11:14:00,42.9980,5.9130,-5,0.0333458,0.0106869,0.007847,0.024398,0014440000,0.47,128
61287,24796,2005/07/03 12:00:00,42.9990,5.9150,20.078,0.0806663,0.0549492,0.040288,0.058931,0011110000,10.59,99
61287,24796,2005/07/03 13:00:00,42.9980,5.9130,20.547,-0.0618442,-0.0421277,-0.030887,-0.04518,0011110000,10.59,59
61287,24796,2005/07/03 14:00:00,42.9980,5.9100,21.094,-0.0927662,0,0,-0.067771,0011110000,10.59,19
61287,24796,2005/07/03 16:00:00,42.9990,5.9070,20.391,-0.0463831,0.0210639,0.015444,-0.033885,0011110000,10.59,0
61287,24796,2005/07/03 18:00:00,42.9970,5.9070,19.648,0,-0.0421274,-0.030887,0,0011110000,10.59,0
61287,24796,2005/07/03 19:00:00,42.9950,5.9070,19.453,0,-0.084252,-0.061775,0,0011110000,10.59,0
61287,24796,2005/07/03 22:00:00,42.9860,5.9070,20.625,0,-0.126367,-0.092662,0,0011110000,10.59,0
61287,24796,2005/07/03 23:00:00,42.9810,5.9060,19.648,-0.0309221,-0.210587,-0.154437,-0.022596,0011110000,10.53,0
61287,24796,2005/07/04 00:00:00,42.9770,5.9030,19.297,-0.0927662,-0.168457,-0.12355,-0.067792,0011110000,10.53,0
61287,24796,2005/07/04 02:00:00,42.9700,5.8980,20,-0.0773052,-0.147387,-0.108106,-0.056499,0011110000,10.53,0
61287,24796,2005/07/04 03:00:00,42.9670,5.8950,19.258,-0.0927662,-0.126321,-0.092662,-0.067804,0011110000,10.53,0
61287,24796,2005/07/04 04:00:00,42.9650,5.8930,18.945,-0.0618442,-0.0842106,-0.061775,-0.045204,0011110000,10.53,0
61287,24796,2005/07/04 06:00:00,42.9620,5.8910,19.414,-0.0309221,-0.0631553,-0.046331,-0.022603,0011110000,10.53,59
61287,24796,2005/07/04 07:00:00,42.9610,5.8920,20.625,0.0309221,-0.0421022,-0.030887,0.022604,0011110000,10.47,80
61287,24796,2005/07/04 08:00:00,42.9610,5.8940,20.898,0.0618442,0,0,0.045208,0011110000,10.53,120
61287,24796,2005/07/04 09:00:00,42.9590,5.8960,21.094,0.0618442,-0.0842023,-0.061775,0.045209,0011110000,10.53,160
61287,24796,2005/07/04 10:00:00,42.9570,5.8980,21.484,0.0618442,-0.0841995,-0.061775,0.04521,0011110000,10.41,201
61287,24796,2005/07/04 11:00:00,42.9550,5.8990,21.836,0.0309221,-0.0841968,-0.061775,0.022606,0011110000,10.53,241
61287,24796,2005/07/04 12:00:00,42.9530,5.9010,23.711,0.0618442,-0.084194,-0.061775,0.045213,0011110000,10.47,208
61287,24796,2005/07/04 13:00:00,42.9510,5.9020,22.461,0.0309221,-0.0841913,-0.061775,0.022607,0011110000,10.59,216
61287,24796,2005/07/04 14:00:00,42.9490,5.9040,21.445,0.0618442,-0.0841885,-0.061775,0.045216,0011110000,10.59,234
61287,24796,2005/07/04 15:00:00,42.9470,5.9050,20.703,0.0309221,-0.0841858,-0.061775,0.022609,0011110000,10.59,194
61287,24796,2005/07/04 16:00:00,42.9450,5.9040,20.586,-0.0309221,-0.084183,-0.061775,-0.02261,0011110000,10.59,154
61287,24796,2005/07/04 17:00:00,42.9420,5.9020,21.055,-0.0618442,-0.126269,-0.092662,-0.045221,0011110000,10.41,113
61287,24796,2005/07/04 20:00:00,42.9340,5.8900,20.977,-0.108227,-0.115739,-0.082367,-0.09045,0011110000,10.47,118
61287,24796,2005/07/04 21:00:00,42.9320,5.8840,20.859,-0.185532,-0.0841651,-0.061775,-0.135686,0011110000,10.53,90
61287,24796,2005/07/04 22:00:00,42.9310,5.8790,20.586,-0.15461,-0.0420815,-0.030887,-0.113074,0011110000,10.53,130
61287,24796,2005/07/04 23:00:00,42.9290,5.8760,20.547,-0.0927662,-0.084161,-0.061775,-0.067846,0011110000,10.53,170
61287,24796,2005/07/05 02:00:00,42.9210,5.8690,20.117,-0.0721515,-0.112205,-0.082367,-0.052774,0011110000,10.53,255
61287,24796,2005/07/05 03:01:00,42.9180,5.8660,19.844,-0.0912455,-0.124151,-0.091143,-0.066745,0011110000,10.35,255
61287,24796,2005/07/05 05:01:00,42.9110,5.8590,19.57,-0.108227,-0.147244,-0.108106,-0.079174,0011110000,10.41,255
61287,24796,2005/07/05 06:01:00,42.9080,5.8550,19.648,-0.123688,-0.126199,-0.092662,-0.090492,0011110000,10.53,255
61287,24796,2005/07/05 07:00:00,42.9040,5.8500,19.648,-0.157231,-0.171108,-0.125644,-0.115038,0011110000,10.53,255
61287,24796,2005/07/05 08:01:00,42.9010,5.8460,19.57,-0.121661,-0.124116,-0.091143,-0.089018,0011110000,10.53,255
61287,24796,2005/07/05 10:00:00,42.8930,5.8360,19.805,-0.15591,-0.169645,-0.124588,-0.114088,0011110000,10.41,255
61287,24796,2005/07/05 11:00:00,42.8890,5.8300,19.883,-0.185532,-0.168215,-0.12355,-0.135778,0011110000,10.53,255
61287,24796,2005/07/05 12:01:00,42.8860,5.8240,20.117,-0.182491,-0.124086,-0.091143,-0.13356,0011110000,10.35,255
61287,24796,2005/07/05 13:00:00,42.8840,5.8190,20.156,-0.157231,-0.0855245,-0.062822,-0.115077,0011110000,10.41,255
61287,24796,2005/07/05 15:00:00,42.8800,5.8060,20.039,-0.200994,-0.084095,-0.061775,-0.147115,0011110000,10.41,255
61287,24796,2005/07/05 16:00:00,42.8790,5.8000,20.078,-0.185532,-0.0420458,-0.030887,-0.135804,0011110000,10.53,255
61287,24796,2005/07/05 17:00:00,42.8790,5.7940,20,-0.185532,0,0,-0.135805,0011110000,10.53,255
61287,24796,2005/07/05 18:01:00,42.8780,5.7890,19.922,-0.152076,-0.0413558,-0.030381,-0.111316,0011110000,10.35,255
61287,24796,2005/07/05 19:00:00,42.8780,5.7840,19.766,-0.157231,0,0,-0.115091,0011110000,10.53,255
61287,24796,2005/07/05 20:00:00,42.8790,5.7770,19.609,-0.216455,0.0420451,0.030887,-0.15844,0011110000,10.53,255
61287,24796,2005/07/05 21:00:00,42.8800,5.7700,19.453,-0.216455,0.0420458,0.030887,-0.158437,0011110000,10.53,255
61287,24796,2005/07/05 23:00:00,42.8830,5.7580,18.945,-0.185532,0.0630707,0.046331,-0.135799,0011110000,10.53,255
61287,24796,2005/07/06 01:00:00,42.8880,5.7430,18.555,-0.231916,0.105125,0.077219,-0.169738,0011110000,10.53,255
61287,24796,2005/07/06 02:00:00,42.8910,5.7350,18.789,-0.247377,0.126158,0.092662,-0.181042,0011110000,10.41,255
61287,24796,2005/07/06 03:00:00,42.8940,5.7280,18.672,-0.216455,0.126164,0.092662,-0.158404,0011110000,10.53,255
61287,24796,2005/07/06 04:00:00,42.8920,5.7260,18.828,-0.0618442,-0.0841101,-0.061775,-0.045258,0011110000,10.53,255
61287,24796,2005/07/06 05:01:00,42.8910,5.7260,19.102,0,-0.0413646,-0.030381,0,0011110000,10.35,255
61287,24796,2005/07/06 06:00:00,42.8890,5.7250,19.18,-0.0314462,-0.0855315,-0.062822,-0.023014,0011110000,10.41,253
61287,24796,2005/07/06 07:00:00,42.8900,5.7250,19.453,-2.74643e-14,0.0420526,0.030887,0,0011110000,10.53,227
61287,24796,2005/07/06 08:00:00,42.8910,5.7270,19.531,0.0618442,0.0420533,0.030887,0.04526,0011110000,10.41,210
61287,24796,2005/07/06 09:00:00,42.8910,5.7290,19.531,0.0618442,0,0,0.045259,0011110000,10.53,178
61287,24796,2005/07/06 10:00:00,42.8900,5.7370,19.531,0.247377,-0.0420533,-0.030887,0.181039,0011110000,10.53,192
61287,24796,2005/07/06 11:00:00,42.8880,5.7470,19.648,0.309221,-0.0841046,-0.061775,0.226304,0011110000,10.53,224
61287,24796,2005/07/06 13:00:00,42.8750,5.7690,19.727,0.340143,-0.273307,-0.200769,0.248965,0011110000,10.53,254
61287,24796,2005/07/06 14:00:00,42.8680,5.7770,19.766,0.247377,-0.294282,-0.216212,0.181095,0011110000,10.53,253
61287,24796,2005/07/06 15:00:00,42.8640,5.7810,19.922,0.123688,-0.168146,-0.12355,0.090556,0011110000,10.53,250
61287,24796,2005/07/06 17:00:00,42.8610,5.7900,19.805,0.139149,-0.0630512,-0.046331,0.101881,0011110000,10.53,236
61287,24796,2005/07/06 18:01:00,42.8590,5.7940,19.57,0.121661,-0.0826867,-0.060762,0.08908,0011110000,10.41,255
61287,24796,2005/07/06 20:00:00,42.8600,5.8070,19.336,0.202683,0.0211926,0.015574,0.148405,0011110000,10.41,255
61287,24796,2005/07/06 21:00:00,42.8610,5.8170,19.141,0.309221,0.0420327,0.030887,0.226409,0011110000,10.53,255
61287,24796,2005/07/06 22:00:00,42.8600,5.8270,18.984,0.228823,-0.00840655,-0.030887,0.226409,0011110000,10.53,255
61287,24796,2005/07/07 00:01:00,42.8500,5.8410,18.633,0.214666,-0.208408,-0.153161,0.15719,0011110000,10.41,255
61287,24796,2005/07/07 01:01:00,42.8430,5.8470,18.594,0.185532,-0.294162,-0.216212,0.135876,0011110000,10.53,255
61287,24796,2005/07/07 02:00:00,42.8340,5.8550,18.398,0.251569,-0.384569,-0.282699,0.184263,0011110000,10.53,255
61287,24796,2005/07/07 03:00:00,42.8240,5.8630,18.203,0.247377,-0.420112,-0.308875,0.18122,0011110000,10.35,255
61287,24796,2005/07/07 05:00:00,42.8020,5.8790,18.008,0.247377,-0.462002,-0.339762,0.181266,0011110000,10.53,255
61287,24796,2005/07/07 06:00:00,42.7910,5.8860,18.008,0.216455,-0.461878,-0.339762,0.15865,0011110000,10.53,255
61287,24796,2005/07/07 07:00:00,42.7790,5.8940,17.773,0.247377,-0.503773,-0.37065,0.181348,0011110000,10.53,255
61287,24796,2005/07/07 08:00:00,42.7660,5.8990,17.656,0.15461,-0.545643,-0.401537,0.113366,0011110000,10.41,255
61287,24796,2005/07/07 09:00:00,42.7520,5.9060,17.539,0.216455,-0.587487,-0.432425,0.158747,0011110000,10.35,255
61287,24796,2005/07/07 12:00:00,42.7070,5.9200,17.773,0.144303,-0.629148,-0.463312,0.105881,0011110000,10.53,251
61287,24796,2005/07/07 13:00:00,42.6940,5.9220,17.617,0.0618442,-0.545005,-0.401537,0.045399,0011110000,10.41,248
61287,24796,2005/07/07 14:00:00,42.6840,5.9220,18.203,-2.74643e-14,-0.419157,-0.308875,0,0011110000,10.53,254
61287,24796,2005/07/07 17:00:00,42.6730,5.9380,18.789,0.164918,-0.153665,-0.113254,0.121107,0011110000,10.53,255
61287,24796,2005/07/07 19:00:00,42.6620,5.9630,18.555,0.386526,-0.230456,-0.169881,0.283894,0011110000,10.53,255
61287,24796,2005/07/07 20:00:00,42.6570,5.9780,18.438,0.463831,-0.209478,-0.154437,0.340717,0011110000,10.53,255
61287,24796,2005/07/07 21:00:00,42.6490,5.9930,18.32,0.463831,-0.33513,-0.2471,0.340753,0011110000,10.53,255
61287,24796,2005/07/07 22:00:00,42.6380,6.0070,18.906,0.432909,-0.460733,-0.339762,0.318084,0011110000,10.53,255
61287,24796,2005/07/07 23:00:00,42.6240,6.0210,19.336,0.432909,-0.586268,-0.432425,0.318148,0011110000,10.41,255
61287,24796,2005/07/08 00:00:00,42.6130,6.0380,19.531,0.525675,-0.460546,-0.339762,0.3864,0011110000,10.53,255
61287,24796,2005/07/08 02:00:00,42.5940,6.0670,19.688,0.44837,-0.397648,-0.293431,0.329656,0011110000,10.53,255
61287,24796,2005/07/08 03:00:00,42.5830,6.0820,19.727,0.463831,-0.460323,-0.339762,0.341106,0011110000,10.53,255
61287,24796,2005/07/08 04:00:00,42.5720,6.0950,19.766,0.401987,-0.460241,-0.339762,0.295677,0011110000,10.41,255
61287,24796,2005/07/08 05:00:00,42.5620,6.1070,19.688,0.371065,-0.41833,-0.308875,0.272979,0011110000,10.53,255
61287,24796,2005/07/08 07:00:00,42.5400,6.1350,19.727,0.432909,-0.460044,-0.339762,0.318557,0011110000,10.41,255
61287,24796,2005/07/08 08:00:00,42.5300,6.1460,19.727,0.340143,-0.418114,-0.308875,0.250359,0011110000,10.53,255
61287,24796,2005/07/08 09:00:00,42.5200,6.1600,19.727,0.432909,-0.418047,-0.308875,0.318689,0011110000,10.53,255
61287,24796,2005/07/08 10:00:00,42.5090,6.1730,19.805,0.401987,-0.459773,-0.339762,0.295976,0011110000,10.53,255
61287,24796,2005/07/08 11:00:00,42.4980,6.1850,19.766,0.371065,-0.459692,-0.339762,0.273256,0011110000,10.53,255
61287,24796,2005/07/08 12:01:00,42.4890,6.1930,19.844,0.243321,-0.369886,-0.27343,0.179213,0011110000,10.41,255
61287,24796,2005/07/08 13:00:00,42.4850,6.1980,19.844,0.157231,-0.169949,-0.125644,0.115817,0011110000,10.53,255
61287,24796,2005/07/08 14:00:00,42.4820,6.2060,19.766,0.247377,-0.12533,-0.092662,0.182229,0011110000,10.53,251
61287,24796,2005/07/08 15:00:00,42.4800,6.2180,19.688,0.371065,-0.0835501,-0.061775,0.273355,0011110000,10.41,255
61287,24796,2005/07/08 17:00:00,42.4760,6.2470,19.57,0.44837,-0.083546,-0.061775,0.330319,0011110000,10.53,255
61287,24796,2005/07/08 18:00:00,42.4730,6.2640,19.453,0.525675,-0.125312,-0.092662,0.387293,0011110000,10.53,255
61287,24796,2005/07/08 19:00:00,42.4680,6.2790,19.375,0.463831,-0.20884,-0.154437,0.341751,0011110000,10.41,255
61287,24796,2005/07/08 20:00:00,42.4660,6.2900,19.375,0.340143,-0.0835312,-0.061775,0.250631,0011110000,10.53,255
61287,24796,2005/07/08 21:00:00,42.4650,6.3040,19.297,0.432909,-0.0417646,-0.030887,0.318993,0011110000,10.53,255
61287,24796,2005/07/08 22:00:00,42.4640,6.3200,19.102,0.463831,-0.0417643,-0.030887,0.364569,0011110000,10.53,255
61287,24796,2005/07/09 00:00:00,42.4520,6.3540,19.141,0.525675,-0.250557,-0.185325,0.387395,0011110000,10.41,255
61287,24796,2005/07/09 01:00:00,42.4440,6.3730,19.141,0.58752,-0.334023,-0.2471,0.43304,0011110000,10.53,255
61287,24796,2005/07/09 02:00:00,42.4360,6.3920,19.141,0.58752,-0.33398,-0.2471,0.433095,0011110000,10.53,255
61287,24796,2005/07/09 03:00:00,42.4240,6.4130,19.062,0.649364,-0.500889,-0.37065,0.47876,0011110000,10.53,255
61287,24796,2005/07/09 04:00:00,42.4100,6.4290,19.219,0.494753,-0.584249,-0.432425,0.364845,0011110000,10.53,255
61287,24796,2005/07/09 06:00:00,42.3800,6.4470,19.219,0.278299,-0.62576,-0.463312,0.205298,0011110000,10.53,255
61287,24796,2005/07/09 07:00:00,42.3660,6.4470,19.18,0,-0.583836,-0.432425,0,0011110000,10.53,255